Pittsburgh, PA

5:47 AM EST on February 27, 2017 (GMT -0500)
Allegheny County

Weather History for KAGC - April, 2013

Change the Weather History Date:

Monday, April 8, 2013

  Actual Average Record
Temperature  
Mean Temperature 62 °F -  
Max Temperature 75 °F 58 °F 83 °F (1991)
Min Temperature 51 °F 36 °F 21 °F (2007)
Degree Days  
Heating Degree Days 3    
Growing Degree Days 12 (Base 50)    
Moisture  
Dew Point 43 °F    
Average Humidity 49    
Maximum Humidity 66    
Minimum Humidity 33    
Precipitation  
Precipitation 0.00 in - - ()
Sea Level Pressure  
Sea Level Pressure 29.98 in    
Wind  
Wind Speed 7 mph (SSW)    
Max Wind Speed 18 mph    
Max Gust Speed 28 mph    
Visibility 10 miles    
Events      
Averages and records for this station are not official NWS values.
T = Trace of Precipitation, MM = Missing Value Source: NWS Daily Summary

Daily Weather History Graph

Daily Weather History Graph

Search for Another Location

Airport or City:

Trip Planner

Search our weather history database for the weather conditions in past years. The results will help you decide how hot, cold, wet, or windy it might be!

Date:

Astronomy

Apr. 08, 2013 Rise Set
Actual Time 6:51 AM EDT 7:51 PM EDT
Civil Twilight 6:24 AM EDT 8:19 PM EDT
Nautical Twilight 5:51 AM EDT 8:52 PM EDT
Astronomical Twilight 5:16 AM EDT 9:27 PM EDT
Moon 5:41 AM EDT (4/8) 6:24 PM EDT (4/8)
Length of Visible Light 13h 55m
Length of Day
12h 59m
Waning Crescent, 3% of the Moon is Illuminated
Apr 8
Waning Crescent
Apr 10
New
Apr 18
First Quarter
Apr 25
Full
May 2
Last Quarter

Hourly Weather History & Observations

Time (EDT) Temp. Dew Point Humidity Pressure Visibility Wind Dir Wind Speed Gust Speed Precip Events Conditions
12:53 AM 54.0 °F 41.0 °F 62% 30.01 in 10.0 mi North 3.5 mph - N/A   Clear
1:53 AM 53.1 °F 39.9 °F 61% 30.02 in 10.0 mi North 3.5 mph - N/A   Partly Cloudy
2:53 AM 52.0 °F 39.9 °F 63% 30.02 in 10.0 mi NNE 3.5 mph - N/A   Scattered Clouds
3:53 AM 51.1 °F 39.9 °F 66% 30.02 in 10.0 mi North 3.5 mph - N/A   Overcast
4:53 AM 51.1 °F 39.9 °F 66% 30.02 in 10.0 mi Calm Calm - N/A   Overcast
5:53 AM 51.1 °F 39.9 °F 66% 30.02 in 10.0 mi Calm Calm - N/A   Overcast
6:53 AM 52.0 °F 39.9 °F 63% 30.03 in 10.0 mi ESE 3.5 mph - N/A   Mostly Cloudy
7:53 AM 52.0 °F 41.0 °F 66% 30.04 in 10.0 mi ESE 3.5 mph - N/A   Clear
8:53 AM 55.0 °F 42.1 °F 62% 30.05 in 10.0 mi SE 6.9 mph - N/A   Clear
9:53 AM 61.0 °F 46.0 °F 58% 30.03 in 10.0 mi South 8.1 mph - N/A   Clear
10:53 AM 66.9 °F 46.9 °F 49% 30.01 in 10.0 mi South 11.5 mph - N/A   Clear
11:53 AM 71.1 °F 46.0 °F 41% 30.00 in 10.0 mi SSW 13.8 mph - N/A   Clear
12:53 PM 73.0 °F 43.0 °F 34% 29.98 in 10.0 mi WSW 15.0 mph 20.7 mph N/A   Scattered Clouds
1:53 PM 73.0 °F 43.0 °F 34% 29.96 in 10.0 mi SW 17.3 mph 23.0 mph N/A   Mostly Cloudy
2:53 PM 73.9 °F 43.0 °F 33% 29.93 in 10.0 mi SSW 13.8 mph 20.7 mph N/A   Mostly Cloudy
3:53 PM 73.9 °F 43.0 °F 33% 29.92 in 10.0 mi SW 18.4 mph 27.6 mph N/A   Scattered Clouds
4:53 PM 73.9 °F 44.1 °F 34% 29.90 in 10.0 mi SW 18.4 mph 25.3 mph N/A   Mostly Cloudy
5:53 PM 73.0 °F 44.1 °F 35% 29.91 in 10.0 mi SSW 17.3 mph 25.3 mph N/A   Overcast
6:53 PM 72.0 °F 45.0 °F 38% 29.92 in 10.0 mi SSW 8.1 mph 19.6 mph N/A   Overcast
7:53 PM 71.1 °F 45.0 °F 39% 29.92 in 10.0 mi SSW 10.4 mph - N/A   Mostly Cloudy
8:53 PM 70.0 °F 46.0 °F 42% 29.93 in 10.0 mi South 11.5 mph - N/A   Scattered Clouds
9:53 PM 69.1 °F 46.0 °F 44% 29.95 in 10.0 mi SSW 8.1 mph - N/A   Mostly Cloudy
10:53 PM 68.0 °F 46.0 °F 45% 29.96 in 10.0 mi SW 11.5 mph - N/A   Overcast
11:53 PM 68.0 °F 46.9 °F 47% 29.96 in 10.0 mi SW 12.7 mph - N/A   Mostly Cloudy